FW7205 Weather Reports


time (UTC)temp
C
wind
direction
speed
KPH
gust
KPH
rain 1hr
cm
rain 24hr
cm
rain mn
cm
humidity
%
barometer
mb
20260510124601 21 0 0.0 0.0 0.00 0.00 0.00 93 1013.4
20260510123057 21 0 0.0 0.0 0.00 0.00 0.00 92 1013.0
20260510121554 21 0 0.0 1.6 0.00 0.00 0.00 92 1012.6
20260510120053 21 0 0.0 0.0 0.00 0.00 0.00 92 1012.3
20260510114557 21 0 0.0 0.0 0.00 0.00 0.00 92 1012.0
20260510113052 21 0 0.0 1.6 0.00 0.00 0.00 92 1011.6
20260510111556 21 0 0.0 1.6 0.00 0.00 0.00 92 1011.2
20260510110055 21 0 0.0 1.6 0.00 0.00 0.00 92 1011.7
20260510104553 21 0 0.0 1.6 0.00 0.00 0.00 92 1011.1
20260510103101 21 0 0.0 4.8 0.00 0.00 0.00 91 1010.4
20260510101605 21 0 0.0 3.2 0.00 0.00 0.00 91 1010.1
20260510100104 21 0 0.0 3.2 0.00 0.00 0.00 91 1009.9
20260510094557 21 0 0.0 1.6 0.00 0.00 0.00 90 1009.9
20260510093053 21 0 0.0 1.6 0.00 0.00 0.00 90 1009.9
20260510091551 21 0 0.0 0.0 0.00 0.00 0.00 89 1009.8
20260510090056 21 0 0.0 3.2 0.00 0.00 0.00 89 1009.9
20260510084558 21 0 0.0 3.2 0.00 0.00 0.00 89 1009.8
20260510083055 21 0 0.0 3.2 0.00 0.00 0.00 89 1009.7
20260510081600 22 0 0.0 3.2 0.00 0.00 0.00 89 1009.8
20260510080053 22 0 0.0 1.6 0.00 0.00 0.00 89 1009.9
20260510074553 22 0 0.0 1.6 0.00 0.00 0.00 88 1010.0
20260510073104 22 0 0.0 1.6 0.00 0.00 0.00 88 1010.0
20260510071553 22 0 0.0 1.6 0.00 0.00 0.00 88 1010.3
20260510070056 22 0 0.0 1.6 0.00 0.00 0.00 87 1010.1
20260510064554 22 0 0.0 3.2 0.00 0.00 0.00 86 1010.0
20260510063053 23 0 0.0 4.8 0.00 0.00 0.00 86 1010.3
20260510061601 23 131 0.0 3.2 0.00 0.00 0.00 85 1010.2
20260510060054 23 0 0.0 3.2 0.00 0.00 0.00 83 1010.4
20260510054601 23 0 0.0 3.2 0.00 0.00 0.00 82 1010.4
20260510053055 23 0 0.0 3.2 0.00 0.00 0.00 80 1010.3
20260510051554 23 0 0.0 3.2 0.00 0.00 0.00 79 1010.6
20260510050056 24 0 0.0 3.2 0.00 0.00 0.00 76 1010.6
20260510044555 24 0 0.0 3.2 0.00 0.00 0.00 74 1010.6
20260510043055 24 0 0.0 4.8 0.00 0.00 0.00 73 1010.4
20260510041626 24 0 0.0 4.8 0.00 0.00 0.00 73 1010.7
20260510040056 25 0 0.0 3.2 0.00 0.00 0.00 78 1010.4
20260510034558 25 0 0.0 3.2 0.00 0.00 0.00 77 1010.2
20260510033111 25 0 0.0 0.0 0.00 0.00 0.00 75 1009.8
20260510031556 25 0 0.0 0.0 0.00 0.00 0.00 74 1009.7
20260510030054 25 0 0.0 0.0 0.00 0.00 0.00 73 1009.3
20260510024608 26 0 0.0 0.0 0.00 0.00 0.00 72 1009.2
20260510023058 26 0 0.0 0.0 0.00 0.00 0.00 71 1009.1
20260510021553 26 0 0.0 0.0 0.00 0.00 0.00 70 1009.0
20260510020055 26 0 0.0 0.0 0.00 0.00 0.00 69 1008.7
20260510014613 27 0 0.0 0.0 0.00 0.00 0.00 68 1008.5
20260510013102 27 0 0.0 0.0 0.00 0.00 0.00 68 1008.3
20260510011554 28 0 0.0 0.0 0.00 0.00 0.00 69 1008.1
20260510010055 28 0 0.0 0.0 0.00 0.00 0.00 69 1008.1
20260510004603 28 0 0.0 0.0 0.00 0.00 0.00 71 1007.5
20260510003054 28 0 0.0 0.0 0.00 0.00 0.00 70 1007.4
20260510001555 28 0 0.0 0.0 0.00 0.00 0.00 69 1007.4
20260510000054 28 0 0.0 0.0 0.00 0.00 0.00 69 1007.3
20260509234553 29 0 0.0 0.0 0.00 0.00 0.00 68 1007.2
20260509233057 29 0 0.0 1.6 0.00 0.00 0.00 68 1007.3
20260509231608 29 0 0.0 1.6 0.00 0.00 0.00 68 1007.3
20260509230053 30 0 0.0 3.2 0.00 0.00 0.00 66 1007.1
20260509224558 29 0 0.0 3.2 0.00 0.00 0.00 67 1007.0
20260509223056 29 0 0.0 1.6 0.00 0.00 0.00 68 1006.9
20260509221554 29 0 0.0 3.2 0.00 0.00 0.00 66 1006.8
20260509220058 30 0 0.0 0.0 0.00 0.00 0.00 67 1006.9
20260509214555 30 0 0.0 1.6 0.00 0.00 0.00 63 1007.0
20260509213056 30 0 0.0 4.8 0.00 0.00 0.00 61 1007.4
20260509211559 31 5 0.0 3.2 0.00 0.00 0.00 60 1007.3
20260509210107 31 350 0.0 1.6 0.00 0.00 0.00 62 1007.4
20260509204554 31 0 0.0 3.2 0.00 0.00 0.00 63 1007.4
20260509203057 30 0 0.0 3.2 0.00 0.00 0.00 62 1008.0
20260509201553 30 0 0.0 0.0 0.00 0.00 0.00 63 1008.2
20260509200057 31 0 0.0 1.6 0.00 0.00 0.00 63 1008.2
20260509194555 30 0 0.0 1.6 0.00 0.00 0.00 66 1008.1
20260509193057 30 0 0.0 0.0 0.00 0.00 0.00 67 1008.5
20260509191554 28 0 0.0 3.2 0.00 0.00 0.00 72 1008.9
20260509190056 29 0 0.0 1.6 0.00 0.00 0.00 70 1009.0
20260509184550 29 0 0.0 1.6 0.00 0.00 0.00 72 1009.0
20260509183055 28 346 0.0 3.2 0.00 0.00 0.00 72 1009.4
20260509181555 28 0 0.0 3.2 0.00 0.00 0.00 75 1009.4
20260509180054 28 0 0.0 3.2 0.00 0.00 0.00 75 1009.6
20260509174555 28 0 0.0 0.0 0.00 0.00 0.00 78 1009.7
20260509173116 27 0 0.0 0.0 0.00 0.00 0.00 83 1010.0
20260509171553 25 0 0.0 0.0 0.00 0.00 0.00 88 1010.3
20260509170112 25 0 0.0 0.0 0.00 0.00 0.00 89 1010.0
20260509164602 25 0 0.0 0.0 0.00 0.00 0.00 90 1010.2
20260509163053 24 0 0.0 0.0 0.00 0.00 0.00 90 1010.1
20260509161556 24 0 0.0 0.0 0.00 0.00 0.00 91 1010.1
20260509160059 24 0 0.0 0.0 0.00 0.00 0.00 91 1010.2
20260509154555 24 0 0.0 0.0 0.00 0.00 0.00 91 1010.2
20260509153054 24 0 0.0 1.6 0.00 0.00 0.00 91 1010.3
20260509151616 24 0 0.0 1.6 0.00 0.00 0.00 91 1010.2
20260509150055 23 0 0.0 8.0 0.00 0.00 0.00 92 1009.8
20260509144554 23 360 1.6 6.4 0.00 0.00 0.00 92 1009.1
20260509143106 24 360 0.0 6.4 0.00 0.00 0.00 93 1009.0
20260509141557 23 360 0.0 6.4 0.00 0.00 0.00 94 1009.0
20260509140057 23 208 0.0 3.2 0.00 0.00 0.00 94 1009.2
20260509134605 23 197 0.0 4.8 0.00 0.00 0.00 94 1009.3
20260509133104 22 0 0.0 1.6 0.00 0.00 0.00 94 1009.5
20260509131604 22 0 0.0 1.6 0.00 0.00 0.00 94 1009.5
20260509130128 22 0 0.0 1.6 0.00 0.00 0.00 94 1009.3